Miscellaneous Local Product
Issued by NWS North Platte, NE

Home | Current Version | Previous Version | Text Only | Print | Product List | Glossary On
Versions: 1 2 3 4 5 6 7 8 9 10 11 12 13 14 15 16 17 18 19 20 21 22 23 24 25 26 27 28 29 30 31 32 33 34 35 36 37 38 39 40 41 42 43 44 45 46 47 48 49 50
249
AXUS43 KLBF 220510
MISLBF


WESTERN AND NORTH CENTRAL NEBRASKA HOURLY WEATHER ROUNDUP
NATIONAL WEATHER SERVICE NORTH PLATTE NE
1200 AM CDT SUN OCT 22 2017

NOTE: "FAIR" INDICATES FEW OR NO CLOUDS BELOW 12,000 FEET WITH NO
SIGNIFICANT WEATHER AND/OR OBSTRUCTIONS TO VISIBILITY.

NOTE: STATIONS NOT REPORTING VARIABLES SUCH AS SKY/WEATHER OR
PRESSURE ARE PROVIDED BY RAWS AND APRS NETWORKS AND ARE NOT UNDER
NATIONAL WEATHER SERVICE QUALITY CONTROL.

...OBSERVATIONS IN AND NEAR THE EASTERN PANHANDLE OF NEBRASKA...

CITY           SKY/WX    TMP DP  RH WIND       PRES   REMARKS
PINE RIDGE     CLEAR     27  22  81 CALM      30.01F
GORDON         FAIR      32  21  63 NW5       30.02R WCI  28
CHADRON        CLEAR     29  13  51 W7        30.03R WCI  22
ALLIANCE       CLEAR     26  19  74 W9        30.05S HAZE    WCI  17
SIDNEY         CLEAR     36  17  46 W12       30.10F WCI  28
CRESCENT LAKE    N/A     43  18  36 W9          N/A
$$

...OBSERVATIONS IN NORTHERN NEBRASKA AND FAR SOUTHERN SOUTH DAKOTA...

CITY           SKY/WX    TMP DP  RH WIND       PRES   REMARKS
WINNER         FAIR      44  29  55 SW7       29.98R
VALENTINE      CLEAR     33  28  81 SW7       30.01R WCI  27
THEDFORD       CLEAR     36  28  73 CALM      30.04F
AINSWORTH      CLEAR     33  29  86 SW5       30.01F WCI  29
O`NEILL        CLEAR     40  32  72 W6        30.00S
ORD            CLEAR     35  32  88 CALM      30.00F
BROKEN BOW     CLEAR     39  27  62 CALM      30.02R
VALENTINE NWR    N/A     38  30  73 CALM        N/A
HALSEY           N/A     38  24  56 CALM        N/A
BUTTE            N/A     41  32  69 W3          N/A
CHAMBERS         N/A     38  29  69 CALM        N/A
EWING            N/A     40  33  77 CALM        N/A
$$

...OBSERVATIONS IN SOUTHWEST NEBRASKA AND FAR NORTHEAST COLORADO...

CITY           SKY/WX    TMP DP  RH WIND       PRES   REMARKS
WRAY           FAIR      34  21  60 W7        30.10S WCI  28
HOLYOKE        FAIR      43  18  36 W12G20    30.10S
IMPERIAL       CLEAR     42  20  41 W10       30.07F
OGALLALA       CLEAR     38  24  57 W8        30.06F WCI  32
NORTH PLATTE   CLEAR     31  26  82 NW6       30.05F WCI  25
MCCOOK         CLEAR     40  25  55 W7        30.08R
LEXINGTON      CLOUDY    37  29  73 W5        30.04S WCI  33
STAPLETON        N/A     34  24  67 CALM        N/A
GOTHENBURG       N/A     40  22  49 W3          N/A
CALLAWAY         N/A     31  28  88 NW5         N/A  WCI  26
$$

...OBSERVATIONS IN CENTRAL LINCOLN COUNTY AREA...

CITY           SKY/WX    TMP DP  RH WIND       PRES   REMARKS
N.P. AIRPORT   CLEAR     31  26  82 NW6       30.05F WCI  25
N.P. DOWNTOWN    N/A     37  30  75 CALM        N/A
N.P. SOUTHEAST   N/A     39  28  65 CALM        N/A
N.P. HILLCREST   N/A     39  26  60 W3          N/A
$$

...SOME OBSERVATIONS FROM AROUND THE REGION...

CITY           SKY/WX    TMP DP  RH WIND       PRES   REMARKS
DENVER         CLEAR     36  12  37 S13       30.15R WCI  27
LIMON          CLEAR     26  14  60 W3        30.17R
ASPEN          CLOUDY    26  20  77 S7        30.34R WCI  18
LARAMIE        CLEAR     31  14  49 SW16      30.16R WCI  20
CASPER         CLEAR     37  12  35 SW12      30.08R WCI  29
CHEYENNE       CLEAR     38  15  39 W13       30.12R WCI  30
SCOTTSBLUFF    CLEAR     36  18  48 NW9       30.07S WCI  29
GRAND ISLAND   PTCLDY    41  38  89 SW3       30.03R
OMAHA          CLOUDY    52  40  63 CALM      29.99S
SIOUX FALLS    CLEAR     45  38  76 W5        29.95R
PIERRE         CLEAR     45  31  58 W8        29.93R
RAPID CITY     CLEAR     35  17  47 NW6       29.98S WCI  30
BISMARCK       CLEAR     40  32  73 W6        29.82S
KANSAS CITY    TSTM      52  50  93 N16G23    29.96F FOG
HILL CITY      CLOUDY    36  33  89 W5        30.08R WCI  32
WICHITA        CLOUDY    57  44  62 N14       30.00F
DODGE CITY     CLOUDY    41  32  70 N5        30.10R
OKLAHOMA CITY  TSTM      57  54  89 N21       30.03R
DALLAS         LGT RAIN  82  71  69 S20       29.87R
AMARILLO       CLEAR     45  34  65 CALM      30.15R
$$




USA.gov is the U.S. government's official web portal to all federal, state and local government web resources and services.